STARLINK-2220, 48570

Orbit data source: Space-Track

STARLINK-2220, 48570 is a payload satellite owned by SpaceX/Seattle (US) in LEO that was launched on Sat, 15 May 2021 UTC via an FALCON 9 launch vehicle from the Air Force Eastern Test Range (AFETR). Payload-class satellites include a variety of spacecraft equipped with specific instruments for various scientific and technological missions. These include communications satellites like Starlink; space stations such as the ISS; scientific satellites like the Hubble; Earth observation satellites from companies like Planet Labs, Umbra, and HawkEye 360; GPS; miniature CubeSats for education and research; and military/defense satellites.

Not visible in the next 10 days
Identifier
48570, 2021-041T
Orbit
LEO
Country
Flag of USUS
Related business
Manufacturer
SpaceX/Seattle
Mission
Partially operational Commercial Communications
Bus & Motor
STARLINK, Unknown motor
Mass
260 kg wet, ~248 kg dry
Launch date (UTC)
2021-05-15 (5 years ago)
Launch vehicle
FALCON 9
Launch site
Air Force Eastern Test Range (AFETR)
Object type
Payload
Rocket body
Debris
Shape & HBR
Box + 1 Pan, 10.1 m
Radar Cross Section
13.562 m², Large (>1 m²)

Expand to show TLE details & history
Last TLE update: 10 hours ago

TLE from 10 hours ago
0 STARLINK-2220
1 48570U 21041T   26173.02870156  .00890205  46881-3  85718-3 0  9996
2 48570  53.1193  12.0852 0009061 345.1557  14.9211 16.11077197281089
Epoch: 2026-06-22T00:41Z
TLE epoch observation values (Epoch: 2026-06-22T00:41:19.814Z)
Latitude
-0.00002°
Longitude
91.53213°
Altitude
239.019 km
Speed
7.768 km/s
True Right ascension
00h 48m 20s
True Declination
0° 00' 00"
Sunlit
Object was in daylight at epoch
Visualization orbit readout
Latitude
Unknown
Longitude
Unknown
Altitude
Unknown
Speed
Unknown
Apparent Right ascension
Unknown
Apparent Declination
Unknown
Sunlit
N/A
Visualization observer readout
Local Sidereal Time
21:44:04
Azimuth
Unknown
Elevation
Unknown
Doppler factor
Unknown
Orbital elements
Apogee altitude
250.162 km
Perigee altitude
238.161 km
Semi-major axis
6,622.299 km
Eccentricity
0.00091
Inclination
53.1193°
RAAN
12.0852°
Arg. of periapsis
345.1557°
True anomaly
14.94786°
Mean anomaly
14.9211°
Eccentric anomaly
14.93448°
Mean motion
4.02745 °/min
Orbital period
89.39 mins
BSTAR
0.00085718
Loading maneuver chart data...
Computing Atmospheric mass density...
Loading historical data...
Loading historical data...
Loading historical data...
Loading historical data...
Loading historical data...
Loading historical data...
Loading historical data...

Documentation

Showing up to 5 results
|